15min,AgWx,beryljct,423,20JAN2021:00:00:00,29.1,12.78,29.5,29.0,28.7,29.0,28.2,53,53,52,0.283,13.5,13.7,13.4,2.543,2.5,147,22,4.5,-0.00003,-0.00002,31.0,32.5,8,0,0,.,6.19,0.00,0.00
15min,AgWx,beryljct,423,20JAN2021:00:15:00,29.3,12.77,28.7,28.5,28.9,29.2,28.4,53,54,52,0.287,13.9,14.1,13.6,2.938,2.9,91,12,4.6,-0.00000,0.00001,31.0,32.5,9,0,0,.,6.19,0.00,0.00
15min,AgWx,beryljct,423,20JAN2021:00:30:00,29.3,12.76,28.2,27.9,28.2,28.6,27.9,54,55,54,0.283,13.8,14.0,13.6,2.192,2.2,79,11,3.6,-0.00005,-0.00004,30.9,32.6,8,0,0,.,6.19,0.00,0.00
15min,AgWx,beryljct,423,20JAN2021:00:45:00,29.2,12.77,28.7,28.2,28.1,33.7,27.9,55,55,54,0.282,13.8,19.1,13.7,3.135,2.7,105,14,4.5,-0.00002,-0.00001,30.9,32.5,9,0,0,.,6.20,0.00,0.00
15min,AgWx,beryljct,423,20JAN2021:01:00:00,29.1,12.76,28.9,28.5,28.2,28.5,28.0,54,55,54,0.283,13.8,14.1,13.7,2.74,2.6,104,11,4.0,-0.00002,-0.00001,30.8,32.6,9,0,0,.,6.20,0.00,0.00
15min,AgWx,beryljct,423,20JAN2021:01:15:00,29.3,12.76,28.9,28.5,28.5,28.7,28.3,54,55,54,0.286,14.0,14.2,13.8,0,1.3,113,13,3.2,-0.00011,-0.00013,30.8,32.5,9,0,0,.,6.19,0.00,0.00
15min,AgWx,beryljct,423,20JAN2021:01:30:00,29.5,12.75,28.9,28.5,28.6,28.8,28.5,54,55,53,0.287,14.1,14.3,13.9,2.126,2.8,66,14,6.0,-0.00002,-0.00000,30.7,32.5,8,0,0,.,6.20,0.00,0.00
15min,AgWx,beryljct,423,20JAN2021:01:45:00,29.3,12.74,27.9,27.4,27.8,28.5,27.3,55,56,54,0.285,13.9,14.1,13.8,1.469,2.2,47,13,3.4,-0.00005,-0.00005,30.7,32.5,8,0,0,.,6.19,0.00,0.00
15min,AgWx,beryljct,423,20JAN2021:02:00:00,28.7,12.74,27.5,27.2,27.1,27.4,26.9,57,57,56,0.282,13.7,14.0,13.6,0.592,0.8,9.7,46,2.3,-0.00015,-0.00021,30.7,32.5,8,0,0,.,6.20,0.00,0.00
15min,AgWx,beryljct,423,20JAN2021:02:15:00,27.8,12.72,27.3,26.9,26.8,27.2,26.6,57,57,56,0.281,13.5,13.8,13.3,0,0.2,315,0.0,1.0,-0.00021,-0.00032,30.6,32.5,9,0,0,.,6.20,0.00,0.00
15min,AgWx,beryljct,423,20JAN2021:02:30:00,27.2,12.72,27.1,26.7,26.9,27.2,26.5,57,58,56,0.283,13.6,13.8,13.3,0,0.2,21,15,1.8,-0.00020,-0.00031,30.6,32.5,8,0,0,.,6.20,0.00,0.00
15min,AgWx,beryljct,423,20JAN2021:02:45:00,27.1,12.72,27.5,27.0,27.0,27.2,26.6,57,58,57,0.285,13.8,14.0,13.6,0,0.4,24,0.8,1.8,-0.00018,-0.00027,30.5,32.5,8,0,0,.,6.20,0.00,0.00
15min,AgWx,beryljct,423,20JAN2021:03:00:00,27.4,12.71,27.8,27.2,27.0,27.2,26.7,58,59,57,0.288,14.1,14.5,13.9,0,0.8,283,10,2.2,-0.00015,-0.00021,30.5,32.5,8,0,0,.,6.20,0.00,0.00
15min,AgWx,beryljct,423,20JAN2021:03:15:00,27.7,12.71,27.9,27.4,27.4,27.5,27.2,57,57,56,0.289,14.1,14.3,13.9,0,0.1,36,18,0.9,-0.00023,-0.00036,30.5,32.5,8,0,0,.,6.20,0.00,0.00
15min,AgWx,beryljct,423,20JAN2021:03:30:00,28.1,12.7,28.0,27.8,27.6,27.9,27.4,57,58,56,0.288,14.2,14.5,14.0,0.504,0.4,132,26,1.5,-0.00019,-0.00029,30.4,32.5,8,0,0,.,6.20,0.00,0.00
15min,AgWx,beryljct,423,20JAN2021:03:45:00,28.5,12.7,28.2,27.8,27.8,27.9,27.7,56,57,56,0.287,14.1,14.4,14.0,2.981,0.8,11,35,3.0,-0.00015,-0.00021,30.4,32.5,8,0,0,.,6.20,0.00,0.00
15min,AgWx,beryljct,423,20JAN2021:04:00:00,28.9,12.68,27.8,27.5,27.6,27.9,27.5,57,58,56,0.291,14.4,14.7,14.1,1.535,2.4,320,8.5,4.2,-0.00004,-0.00003,30.3,32.5,8,0,0,.,6.20,0.00,0.00
15min,AgWx,beryljct,423,20JAN2021:04:15:00,29.0,12.67,27.8,27.4,27.6,27.8,27.4,57,58,56,0.293,14.4,14.6,14.1,2.346,2.0,324,9.8,3.4,-0.00006,-0.00007,30.3,32.5,8,0,0,.,6.20,0.00,0.00
15min,AgWx,beryljct,423,20JAN2021:04:30:00,29.1,12.67,27.7,27.3,27.4,27.6,27.3,57,58,57,0.289,14.3,14.7,14.1,2.039,2.1,331,8.9,3.0,-0.00006,-0.00006,30.3,32.5,8,0,0,.,6.20,0.00,0.00
15min,AgWx,beryljct,423,20JAN2021:04:45:00,29.0,12.66,27.5,27.2,27.2,27.4,27.1,58,58,57,0.287,14.2,14.5,14.0,0.723,1.7,332,14,2.7,-0.00008,-0.00009,30.2,32.5,8,0,0,.,6.20,0.00,0.00
15min,AgWx,beryljct,423,20JAN2021:05:00:00,28.8,12.66,26.9,26.7,26.9,27.2,26.6,58,61,57,0.296,14.2,14.8,13.9,1.315,1.8,317,18,3.2,-0.00007,-0.00008,30.2,32.5,8,0,0,.,6.20,0.00,0.00
15min,AgWx,beryljct,423,20JAN2021:05:15:00,28.7,12.63,27.7,26.9,26.9,27.2,26.6,59,60,58,0.290,14.4,14.8,14.1,4.012,3.0,309,11,4.5,-0.00002,-0.00001,30.2,32.4,8,0,0,.,6.20,0.00,0.00
15min,AgWx,beryljct,423,20JAN2021:05:30:00,28.5,12.63,26.1,25.8,26.4,27.0,25.8,60,61,58,0.289,14.3,14.5,14.2,3.858,4.0,323,9.1,5.2,0.00002,0.00004,30.2,32.4,8,0,0,.,6.20,0.00,0.00
15min,AgWx,beryljct,423,20JAN2021:05:45:00,28.2,12.63,26.7,26.2,26.1,26.2,25.8,60,61,59,0.288,14.2,14.4,13.9,3.617,3.1,319,14,4.3,-0.00002,-0.00000,30.1,32.4,8,0,0,.,6.20,0.00,0.00
15min,AgWx,beryljct,423,20JAN2021:06:00:00,28.1,12.61,26.7,26.2,26.2,26.4,26.0,60,61,59,0.288,14.3,14.5,14.1,2.565,2.3,318,35,4.9,-0.00005,-0.00005,30.1,32.4,8,0,0,.,6.20,0.00,0.00
15min,AgWx,beryljct,423,20JAN2021:06:15:00,28.0,12.59,26.8,26.4,26.3,26.6,26.1,60,61,58,0.283,14.1,14.4,13.7,1.951,1.8,300,22,3.3,-0.00008,-0.00009,30.1,32.4,9,0,0,.,6.20,0.00,0.00
15min,AgWx,beryljct,423,20JAN2021:06:30:00,27.8,12.6,26.8,26.2,26.4,26.6,26.0,58,59,58,0.281,13.7,13.9,13.6,1.162,1.7,348,9.8,3.2,-0.00008,-0.00009,30.1,32.4,8,0,0,.,6.20,0.00,0.00
15min,AgWx,beryljct,423,20JAN2021:06:45:00,27.1,12.6,25.1,25.4,25.8,26.3,25.4,59,59,58,0.275,13.3,13.6,13.1,0.438,0.6,224,63,1.6,-0.00016,-0.00022,30.0,32.4,8,0,0,.,6.20,0.00,0.00
15min,AgWx,beryljct,423,20JAN2021:07:00:00,26.2,12.59,25.4,24.7,24.8,25.5,23.9,60,62,58,0.278,12.9,13.4,11.8,2.521,1.2,177,23,2.5,0.00008,0.00013,30.0,32.4,8,0,0,.,6.20,0.00,0.00
15min,AgWx,beryljct,423,20JAN2021:07:15:00,25.8,12.57,23.7,23.3,24.2,25.2,23.3,65,70,61,0.296,14.2,15.1,13.2,1.82,2.1,136,5.9,3.6,0.00010,0.00018,30.0,32.4,8,0,0,.,6.20,0.00,0.00
15min,AgWx,beryljct,423,20JAN2021:07:30:00,25.7,12.56,24.3,23.7,23.5,23.9,23.3,67,69,65,0.289,14.1,14.8,13.7,3.091,3.0,149,15,4.0,0.00013,0.00023,29.9,32.3,9,0,0,.,6.20,0.00,0.00
15min,AgWx,beryljct,423,20JAN2021:07:45:00,25.4,12.58,24.1,23.7,23.5,24.3,23.0,68,69,65,0.294,14.4,14.8,14.1,2.192,2.6,143,8.2,5.5,0.00012,0.00021,29.9,32.3,8,2,0,.,6.20,0.00,0.00
15min,AgWx,beryljct,423,20JAN2021:08:00:00,25.1,12.56,25.4,25.1,24.4,25.3,23.7,65,68,61,0.283,14.3,14.6,13.8,2.543,3.5,168,13,5.2,0.00018,0.00030,29.9,32.3,8,6,0,.,6.20,0.00,0.00
15min,AgWx,beryljct,423,20JAN2021:08:15:00,25.0,12.59,22.3,22.4,24.3,25.2,22.4,63,66,62,0.271,13.7,14.1,12.7,0,1.1,152,27,2.9,0.00011,0.00016,29.8,32.3,8,14,0,.,6.20,0.00,0.00
15min,AgWx,beryljct,423,20JAN2021:08:30:00,24.5,12.61,23.2,22.9,22.5,23.3,21.7,68,69,66,0.282,13.4,13.9,12.7,0.504,0.6,144,30,1.5,0.00010,0.00012,29.8,32.3,8,18,0,.,6.20,0.00,0.00
15min,AgWx,beryljct,423,20JAN2021:08:45:00,23.9,12.72,23.3,22.7,22.3,22.9,21.9,69,69,67,0.282,13.6,13.8,13.1,0,0.0,102,0.0,0.5,0.00016,0.00017,29.7,32.3,8,42,0,.,6.21,0.00,0.00
15min,AgWx,beryljct,423,20JAN2021:09:00:00,23.7,12.75,23.0,22.8,23.0,23.3,22.5,67,69,66,0.286,13.8,14.1,13.6,0,0.0,53,6.5,0.8,0.00021,0.00022,29.7,32.3,8,56,0,.,6.20,0.00,0.00
15min,AgWx,beryljct,423,20JAN2021:09:15:00,23.8,12.77,21.8,21.4,22.0,23.0,21.3,70,71,68,0.282,13.6,14.5,13.0,0.614,1.2,284,7.7,2.5,0.00023,0.00028,29.6,32.3,8,54,0,.,6.20,0.00,0.00
15min,AgWx,beryljct,423,20JAN2021:09:30:00,23.7,12.91,23.7,23.0,21.9,23.0,21.4,70,72,69,0.293,13.8,14.5,13.5,0,0.1,279,0.0,0.6,0.00023,0.00025,29.5,32.2,8,62,0,.,6.21,0.00,0.00
15min,AgWx,beryljct,423,20JAN2021:09:45:00,23.9,14.94,24.9,24.5,23.6,24.6,22.8,68,71,63,0.286,14.5,15.1,13.9,1.841,0.9,279,0.0,2.1,0.00032,0.00037,29.5,32.2,9,80,0,.,6.20,0.00,0.00
15min,AgWx,beryljct,423,20JAN2021:10:00:00,25.9,14.85,28.1,27.4,26.3,27.8,24.5,61,67,58,0.294,14.7,15.7,14.1,1.754,0.7,356,75,1.8,0.00108,0.00118,29.4,32.2,9,345,0,.,6.20,0.00,0.00
15min,AgWx,beryljct,423,20JAN2021:10:15:00,30.1,14.74,28.9,29.3,28.4,30.1,27.3,56,58,53,0.298,14.8,15.6,14.2,0.833,1.8,132,30,3.4,0.00125,0.00141,29.4,32.2,9,374,0,.,6.20,0.00,0.00
15min,AgWx,beryljct,423,20JAN2021:10:30:00,34.0,14.7,30.8,29.9,30.0,31.0,29.0,53,54,51,0.291,14.7,15.8,13.9,0.986,1.6,102,38,3.3,0.00148,0.00166,29.4,32.2,8,432,0,.,6.20,0.00,0.00
15min,AgWx,beryljct,423,20JAN2021:10:45:00,37.3,14.72,32.1,31.9,31.2,32.8,29.9,51,52,48,0.295,15.0,17.0,14.0,1.096,1.0,130,60,3.4,0.00166,0.00182,29.3,32.2,9,473,0,.,6.19,0.00,0.00
15min,AgWx,beryljct,423,20JAN2021:11:00:00,40.9,14.59,35.4,33.8,33.5,34.3,31.8,47,50,45,0.301,15.3,16.5,14.5,1.447,1.7,171,35,4.0,0.00222,0.00248,29.4,32.1,8,602,0,.,6.19,0.00,0.00
15min,AgWx,beryljct,423,20JAN2021:11:15:00,42.2,14.6,34.0,33.3,33.0,34.5,32.4,46,46,45,0.291,14.4,16.0,13.9,1.425,1.3,111,42,3.1,0.00111,0.00127,29.4,32.1,8,262,0,.,6.19,0.00,0.00
15min,AgWx,beryljct,423,20JAN2021:11:30:00,42.3,14.57,34.6,34.0,33.8,34.2,33.4,45,45,44,0.291,14.5,14.9,14.0,1.6,1.4,189,46,3.5,0.00132,0.00151,29.5,32.1,9,323,0,.,6.19,0.00,0.00
15min,AgWx,beryljct,423,20JAN2021:11:45:00,42.7,14.52,34.4,34.6,34.5,35.2,34.1,43,44,42,0.288,14.3,15.5,13.7,1.776,1.3,348,72,4.2,0.00191,0.00212,29.6,32.1,8,503,0,.,6.19,0.00,0.00
15min,AgWx,beryljct,423,20JAN2021:12:00:00,44.6,14.51,36.4,37.4,36.0,37.4,34.5,40,42,39,0.301,14.0,15.1,13.2,2.806,1.2,161,34,3.5,0.00239,0.00265,29.7,32.1,9,610,0,.,6.19,0.00,0.00
15min,AgWx,beryljct,423,20JAN2021:12:15:00,45.9,14.5,37.6,37.9,36.8,37.9,36.3,39,40,38,0.301,14.3,15.1,13.7,1.271,2.3,31,50,7.0,0.00222,0.00254,29.9,32.1,8,563,0,.,6.19,0.00,0.00
15min,AgWx,beryljct,423,20JAN2021:12:30:00,46.4,14.13,38.5,37.7,37.6,38.4,37.0,39,40,38,0.295,14.8,15.6,14.1,1.666,2.5,312,30,7.3,0.00220,0.00254,30.0,32.1,8,548,0,.,6.18,0.00,0.00
15min,AgWx,beryljct,423,20JAN2021:12:45:00,46.8,14.09,39.4,38.7,38.2,39.1,37.6,39,40,38,0.316,15.3,16.6,14.6,0,1.6,333,58,4.4,0.00223,0.00251,30.1,32.0,8,555,0,.,6.19,0.00,0.00
15min,AgWx,beryljct,423,20JAN2021:13:00:00,47.2,14.14,38.9,39.6,39.4,40.4,38.4,39,40,38,0.319,16.6,17.4,16.1,2.17,1.6,57,66,4.8,0.00227,0.00255,30.3,32.0,8,552,0,.,6.18,0.00,0.00
15min,AgWx,beryljct,423,20JAN2021:13:15:00,47.7,14.18,40.9,40.7,39.8,41.2,39.1,40,41,38,0.333,17.2,18.1,16.3,3.157,1.8,34,56,3.5,0.00227,0.00256,30.5,32.0,8,547,0,.,6.18,0.00,0.00
15min,AgWx,beryljct,423,20JAN2021:13:30:00,48.5,14.02,40.9,41.1,41.4,42.6,40.4,38,39,37,0.335,17.7,18.8,17.2,3.968,1.9,52,55,4.5,0.00231,0.00263,30.8,32.0,8,542,0,.,6.18,0.00,0.00
15min,AgWx,beryljct,423,20JAN2021:13:45:00,49.0,14.13,42.0,41.6,41.3,42.1,40.9,39,39,38,0.348,18.1,18.9,17.5,1.293,2.4,353,35,5.4,0.00226,0.00262,31.1,32.0,8,530,0,.,6.18,0.00,0.00
15min,AgWx,beryljct,423,20JAN2021:14:00:00,49.8,13.98,42.8,42.8,42.3,43.1,41.6,39,39,38,0.360,18.8,19.6,18.2,0.745,1.6,321,51,4.3,0.00221,0.00250,31.6,32.0,8,516,0,.,6.17,0.00,0.00
15min,AgWx,beryljct,423,20JAN2021:14:15:00,50.6,13.95,45.9,43.3,43.2,43.7,42.7,39,39,38,0.375,19.7,20.6,19.1,2.784,2.0,6.9,22,5.8,0.00216,0.00248,32.2,32.0,8,497,0,.,6.18,0.00,0.00
15min,AgWx,beryljct,423,20JAN2021:14:30:00,51.3,13.97,44.0,44.7,43.9,44.8,43.5,39,40,38,0.398,20.9,22.0,20.1,3.88,2.9,18,23,6.4,0.00205,0.00244,32.7,32.0,8,462,0,.,6.17,0.00,0.00
15min,AgWx,beryljct,423,20JAN2021:14:45:00,52.0,13.94,45.3,45.7,45.5,46.6,44.2,39,40,38,0.401,22.0,22.8,21.1,3.047,2.8,61,41,5.3,0.00207,0.00246,33.3,32.1,8,453,0,.,6.17,0.00,0.00
15min,AgWx,beryljct,423,20JAN2021:15:00:00,52.7,13.99,47.7,46.3,45.9,46.7,45.2,40,41,39,0.427,22.8,23.5,21.8,3.683,3.0,94,41,6.5,0.00192,0.00231,33.8,32.1,8,419,0,.,6.17,0.00,0.00
15min,AgWx,beryljct,423,20JAN2021:15:15:00,53.0,13.88,47.8,46.8,46.3,46.8,45.8,41,42,40,0.444,23.7,24.4,23.2,0.526,2.7,114,32,4.6,0.00179,0.00215,34.3,32.1,8,395,0,.,6.17,0.00,0.00
15min,AgWx,beryljct,423,20JAN2021:15:30:00,53.3,13.88,48.6,47.7,47.3,47.8,46.9,43,44,40,0.488,25.9,26.7,24.0,6.138,3.7,121,26,7.1,0.00170,0.00212,34.8,32.2,8,362,0,.,6.17,0.00,0.00
15min,AgWx,beryljct,423,20JAN2021:15:45:00,53.5,13.94,50.7,49.8,48.5,49.9,47.6,43,44,42,0.523,27.0,28.2,26.3,7.629,3.5,157,35,13.2,0.00154,0.00194,35.2,32.2,8,326,0,.,6.17,0.00,0.00
15min,AgWx,beryljct,423,20JAN2021:16:00:00,53.6,13.91,50.2,49.8,49.5,50.1,49.1,43,44,43,0.523,28.0,28.4,27.6,8.2,8.9,163,11,13.0,0.00174,0.00251,35.6,32.3,8,288,0,.,6.17,0.00,0.00
15min,AgWx,beryljct,423,20JAN2021:16:15:00,53.4,13.92,49.5,49.1,49.2,49.9,48.9,44,44,43,0.520,28.0,28.3,27.8,6.708,8.5,160,9.1,11.2,0.00152,0.00225,36.0,32.4,8,247,0,.,6.17,0.00,0.00
15min,AgWx,beryljct,423,20JAN2021:16:30:00,53.0,13.94,50.2,49.6,49.4,49.7,48.9,44,45,44,0.543,28.6,29.2,28.0,6.905,8.4,175,15,12.0,0.00133,0.00204,36.3,32.5,8,207,0,.,6.18,0.00,0.00
15min,AgWx,beryljct,423,20JAN2021:16:45:00,52.6,13.95,48.9,48.9,49.2,49.8,48.8,46,47,45,0.554,29.5,29.7,29.1,11.22,9.7,177,11,15.0,0.00121,0.00195,36.6,32.6,8,166,0,.,6.18,0.00,0.00
15min,AgWx,beryljct,423,20JAN2021:17:00:00,51.8,13.98,47.9,47.9,48.4,48.9,47.8,48,48,47,0.547,29.5,29.7,29.3,8.37,11.1,179,9.4,16.1,0.00054,0.00064,36.8,32.7,8,126,0,.,6.18,0.00,0.00
15min,AgWx,beryljct,423,20JAN2021:17:15:00,50.7,14,46.4,46.9,47.4,47.9,46.9,49,49,48,0.537,29.1,29.4,28.8,5.919,9.6,186,8.4,13.9,0.00045,0.00054,37.0,32.8,8,86,0,.,6.18,0.00,0.00
15min,AgWx,beryljct,423,20JAN2021:17:30:00,49.2,13.15,44.8,44.8,45.9,46.8,44.8,51,52,49,0.522,28.6,28.8,28.2,5.941,6.9,193,5.9,9.1,0.00028,0.00037,37.1,32.9,8,39,0,.,6.18,0.00,0.00
15min,AgWx,beryljct,423,20JAN2021:17:45:00,47.0,13.07,43.3,42.6,43.3,44.7,42.6,54,55,52,0.513,27.8,28.2,27.5,5.7,5.1,196,5.6,6.6,0.00013,0.00019,37.2,33.0,8,10,0,.,6.18,0.00,0.00
15min,AgWx,beryljct,423,20JAN2021:18:00:00,44.8,13.02,41.6,41.2,41.7,42.6,41.0,57,58,55,0.511,27.5,27.9,27.0,5.174,5.2,198,5.6,6.3,0.00011,0.00015,37.2,33.1,9,3,0,.,6.18,0.00,0.00
15min,AgWx,beryljct,423,20JAN2021:18:15:00,43.1,12.99,41.4,41.3,41.4,41.7,40.9,58,59,58,0.511,27.7,28.1,27.2,6.116,5.8,207,6.2,7.6,0.00012,0.00017,37.2,33.2,8,0,0,.,6.19,0.00,0.00
15min,AgWx,beryljct,423,20JAN2021:18:30:00,41.8,12.97,39.6,39.6,40.4,41.3,39.6,59,61,58,0.500,27.3,27.7,27.0,5.656,5.8,203,4.1,6.6,0.00011,0.00015,37.1,33.3,9,0,0,.,6.19,0.00,0.00
15min,AgWx,beryljct,423,20JAN2021:18:45:00,40.8,12.96,38.8,38.8,39.4,39.7,38.7,61,62,60,0.498,27.0,27.3,26.6,5.305,5.6,207,3.7,6.6,0.00009,0.00013,37.0,33.4,9,0,0,.,6.19,0.00,0.00
15min,AgWx,beryljct,423,20JAN2021:19:00:00,39.8,12.95,39.5,39.2,38.8,39.3,38.5,62,63,61,0.498,27.0,27.3,26.6,4.867,5.3,212,2.3,5.9,0.00007,0.00011,36.9,33.5,8,0,0,.,6.19,0.00,0.00
15min,AgWx,beryljct,423,20JAN2021:19:15:00,39.0,12.94,38.5,37.8,38.5,39.3,37.2,62,63,61,0.484,26.6,27.2,25.1,3.727,4.5,199,13,5.6,0.00004,0.00007,36.8,33.6,9,0,0,.,6.19,0.00,0.00
15min,AgWx,beryljct,423,20JAN2021:19:30:00,38.1,12.93,36.2,35.9,37.5,39.1,35.9,62,63,59,0.452,25.6,26.8,24.4,5.196,4.7,179,6.7,5.8,0.00005,0.00008,36.6,33.8,9,0,0,.,6.19,0.00,0.00
15min,AgWx,beryljct,423,20JAN2021:19:45:00,37.0,12.91,34.8,34.3,35.0,36.3,33.6,65,68,63,0.453,24.3,25.3,23.2,6.357,5.6,172,6.9,6.8,0.00006,0.00009,36.4,33.8,9,0,0,.,6.19,0.00,0.00
15min,AgWx,beryljct,423,20JAN2021:20:00:00,35.9,12.91,34.6,34.2,33.9,34.5,33.1,68,69,67,0.454,24.5,25.0,23.6,6.62,6.7,184,4.4,7.4,0.00006,0.00009,36.2,33.9,9,0,0,.,6.20,0.00,0.00
15min,AgWx,beryljct,423,20JAN2021:20:15:00,35.2,12.9,32.5,32.4,34.1,35.5,32.1,69,71,67,0.441,24.8,26.2,22.7,3.508,3.7,199,57,6.3,-0.00002,-0.00001,36.0,34.0,9,0,0,.,6.20,0.00,0.00
15min,AgWx,beryljct,423,20JAN2021:20:30:00,34.6,12.89,32.8,32.7,33.5,36.2,31.4,70,74,63,0.451,24.5,27.0,22.1,0.57,3.0,64,31,4.2,-0.00005,-0.00004,35.8,34.1,8,0,0,.,6.20,0.00,0.00
15min,AgWx,beryljct,423,20JAN2021:20:45:00,33.7,12.88,32.5,32.6,31.3,32.7,29.8,73,76,69,0.458,23.5,25.0,21.4,0.153,2.1,76,90,4.5,-0.00010,-0.00011,35.6,34.1,8,0,0,.,6.20,0.00,0.00
15min,AgWx,beryljct,423,20JAN2021:21:00:00,33.1,12.87,30.4,30.8,32.2,34.1,29.1,71,77,68,0.445,23.9,25.7,20.2,0.68,2.0,180,65,5.2,-0.00010,-0.00012,35.4,34.2,9,0,0,.,6.20,0.00,0.00
15min,AgWx,beryljct,423,20JAN2021:21:15:00,32.0,12.86,26.8,26.5,28.2,30.8,25.7,75,80,70,0.385,21.5,24.2,18.0,2.609,2.8,179,15,3.9,-0.00007,-0.00008,35.2,34.2,9,0,0,.,6.20,0.00,0.00
15min,AgWx,beryljct,423,20JAN2021:21:30:00,31.1,12.86,30.3,30.3,29.2,30.4,26.3,78,81,75,0.429,23.1,23.8,20.6,3.266,2.5,207,7.0,3.4,-0.00008,-0.00010,35.0,34.3,8,0,0,.,6.20,0.00,0.00
15min,AgWx,beryljct,423,20JAN2021:21:45:00,30.7,12.84,25.4,26.7,29.7,31.3,26.2,76,80,73,0.390,23.0,25.3,19.0,1.732,2.3,227,12,3.0,-0.00009,-0.00011,34.8,34.3,9,0,0,.,6.20,0.00,0.00
15min,AgWx,beryljct,423,20JAN2021:22:00:00,29.8,12.85,26.1,26.1,25.8,28.2,24.2,82,87,77,0.389,21.2,24.6,18.9,1.666,1.6,242,7.2,2.4,-0.00012,-0.00015,34.6,34.4,9,0,0,.,6.20,0.00,0.00
15min,AgWx,beryljct,423,20JAN2021:22:15:00,28.9,12.83,24.0,22.8,24.6,26.5,22.2,82,86,80,0.334,20.0,22.4,17.0,2.214,2.2,189,22,3.7,-0.00009,-0.00011,34.4,34.4,8,0,0,.,6.20,0.00,0.00
15min,AgWx,beryljct,423,20JAN2021:22:30:00,27.7,12.83,24.3,23.9,22.7,23.9,21.7,80,83,77,0.357,17.5,19.1,16.1,4.757,3.0,151,10,4.8,-0.00006,-0.00007,34.1,34.4,9,0,0,.,6.20,0.00,0.00
15min,AgWx,beryljct,423,20JAN2021:22:45:00,26.7,12.81,22.4,22.1,22.2,23.9,20.8,81,85,78,0.334,17.3,19.0,15.2,2.411,3.8,177,9.5,5.0,-0.00005,-0.00005,33.9,34.4,8,0,0,.,6.21,0.00,0.00
15min,AgWx,beryljct,423,20JAN2021:23:00:00,25.8,12.81,23.8,22.7,21.8,22.7,20.8,83,87,82,0.361,17.5,19.3,16.4,3.354,3.1,188,4.8,4.2,-0.00007,-0.00007,33.7,34.4,9,0,0,.,6.21,0.00,0.00
15min,AgWx,beryljct,423,20JAN2021:23:15:00,25.2,12.8,22.4,22.0,22.2,23.3,21.1,84,87,82,0.339,18.1,19.7,16.4,3.749,3.6,161,8.9,4.6,-0.00006,-0.00006,33.5,34.4,8,0,0,.,6.20,0.00,0.00
15min,AgWx,beryljct,423,20JAN2021:23:30:00,24.7,12.8,21.3,20.1,20.6,22.0,19.3,84,86,82,0.322,16.4,17.9,15.2,4.231,3.4,179,4.4,4.9,-0.00006,-0.00006,33.4,34.5,8,0,0,.,6.21,0.00,0.00
15min,AgWx,beryljct,423,20JAN2021:23:45:00,24.0,12.78,21.0,20.2,20.2,21.1,19.5,85,87,84,0.319,16.5,17.9,15.6,2.499,3.3,181,6.6,4.8,-0.00006,-0.00007,33.3,34.4,9,0,0,.,6.21,0.00,0.00
15min,AgWx,bigpiney,439,20JAN2021:00:00:00,1.5,12.52,3.5,3.0,2.2,3.0,1.5,83,84,83,0.144,-1.7,-0.9,-2.4,4.472,2.0,250,14,4.5,-0.00003,-0.00004,26.9,29.8,9,0,0,0.0,0.01,0.00,0.00
15min,AgWx,bigpiney,439,20JAN2021:00:15:00,1.1,12.52,0.9,-0.5,-0.1,3.2,-2.1,81,83,77,0.122,-4.6,-0.8,-6.9,2.236,3.4,228,7.0,4.7,-0.00001,-0.00001,26.8,29.8,9,0,0,0.0,0.01,0.00,0.00
15min,AgWx,bigpiney,439,20JAN2021:00:30:00,0.7,12.5,5.6,4.2,1.2,4.4,-0.4,81,83,79,0.145,-3.2,-0.3,-4.9,0,1.9,236,9.2,3.9,-0.00003,-0.00004,26.7,29.7,9,0,0,0.0,0.01,0.00,0.00
15min,AgWx,bigpiney,439,20JAN2021:00:45:00,0.5,12.49,5.6,4.7,4.2,4.9,3.5,78,79,76,0.147,-1.1,-0.3,-2.3,0.417,0.8,179,38,2.2,-0.00006,-0.00008,26.6,29.9,9,0,0,0.0,0.01,0.00,0.00
15min,AgWx,bigpiney,439,20JAN2021:01:00:00,0.6,12.48,3.2,2.4,3.3,4.8,1.0,77,81,75,0.137,-2.3,-0.5,-4.9,0,0.5,205,52,2.3,-0.00006,-0.00009,26.5,29.7,9,0,0,0.0,0.01,0.00,0.00
15min,AgWx,bigpiney,439,20JAN2021:01:15:00,0.6,12.47,-0.2,-0.9,0.6,2.5,-0.9,80,81,78,0.117,-4.2,-2.0,-5.6,0.745,0.3,241,28,1.2,-0.00006,-0.00009,26.5,29.7,9,0,0,0.0,0.01,0.00,0.00
15min,AgWx,bigpiney,439,20JAN2021:01:30:00,0.4,12.45,1.9,1.2,0.7,1.3,-0.9,82,83,81,0.131,-3.6,-2.9,-5.4,4.494,1.9,319,20,4.5,-0.00003,-0.00004,26.4,29.7,9,0,0,0.0,0.01,0.00,0.00
15min,AgWx,bigpiney,439,20JAN2021:01:45:00,0.3,12.44,1.0,0.3,0.2,1.3,-0.5,82,83,80,0.127,-4.1,-3.0,-5.1,0,2.7,319,16,4.7,-0.00002,-0.00002,26.3,29.7,9,0,0,0.0,0.01,0.00,0.00
15min,AgWx,bigpiney,439,20JAN2021:02:00:00,0.0,12.43,1.2,0.6,0.4,0.8,0.1,83,83,82,0.130,-3.6,-3.1,-4.1,2.302,0.9,221,20,2.3,-0.00005,-0.00007,26.2,29.6,9,0,0,0.0,0.01,0.00,0.00
15min,AgWx,bigpiney,439,20JAN2021:02:15:00,-0.3,12.42,0.3,-0.8,-1.4,0.8,-2.8,83,85,80,0.125,-5.4,-3.1,-7.2,1.732,2.7,189,10,4.3,-0.00002,-0.00002,26.1,29.6,9,0,0,0.0,0.01,0.00,0.00
15min,AgWx,bigpiney,439,20JAN2021:02:30:00,-0.9,12.4,-0.4,-0.6,-0.6,0.3,-1.6,84,86,83,0.123,-4.2,-3.2,-5.5,3.683,3.7,178,12,4.4,-0.00001,-0.00001,26.1,29.6,9,0,0,0.0,0.01,0.00,0.00
15min,AgWx,bigpiney,439,20JAN2021:02:45:00,-1.4,12.4,-0.1,-0.5,-0.1,0.4,-0.8,85,86,84,0.127,-3.5,-2.9,-4.6,4.845,2.7,171,3.3,4.8,-0.00002,-0.00003,26.0,29.6,9,0,0,0.0,0.01,0.00,0.00
15min,AgWx,bigpiney,439,20JAN2021:03:00:00,-1.6,12.38,-3.5,-4.2,-3.1,-0.5,-4.4,84,86,82,0.105,-6.8,-3.7,-8.4,0.526,3.4,190,15,5.8,-0.00001,-0.00001,25.9,29.6,9,0,0,0.0,0.01,0.00,0.00
15min,AgWx,bigpiney,439,20JAN2021:03:15:00,-1.9,12.37,-0.1,-1.6,-2.2,-0.5,-4.2,86,88,83,0.118,-5.4,-3.6,-7.6,1.622,1.4,141,24,2.5,-0.00004,-0.00005,25.8,29.5,9,0,0,0.0,0.01,0.00,0.00
15min,AgWx,bigpiney,439,20JAN2021:03:30:00,-2.1,12.37,-2.0,-3.4,-2.0,-0.8,-3.6,82,85,80,0.104,-6.1,-4.4,-8.3,0,0.8,177,25,3.7,-0.00005,-0.00006,25.8,29.5,9,0,0,0.0,0.01,0.00,0.00
15min,AgWx,bigpiney,439,20JAN2021:03:45:00,-2.5,12.36,-5.4,-6.2,-4.1,-2.4,-6.2,81,82,80,0.090,-8.6,-6.7,-10.8,0.965,0.9,253,14,2.4,-0.00004,-0.00005,25.7,29.5,9,0,0,0.0,0.01,0.00,0.00
15min,AgWx,bigpiney,439,20JAN2021:04:00:00,-3.0,12.35,-3.0,-3.9,-5.1,-3.8,-6.3,83,85,80,0.107,-8.9,-7.2,-10.7,0.702,0.9,302,21,2.8,-0.00004,-0.00005,25.6,29.5,9,0,0,0.0,0.01,0.00,0.00
15min,AgWx,bigpiney,439,20JAN2021:04:15:00,-3.5,12.35,-2.5,-3.5,-3.9,-3.4,-4.1,85,85,85,0.110,-7.2,-6.8,-7.6,2.477,1.8,317,21,3.1,-0.00003,-0.00004,25.5,29.3,9,0,0,0.0,0.01,0.00,0.00
15min,AgWx,bigpiney,439,20JAN2021:04:30:00,-3.7,12.34,-1.9,-2.4,-2.9,-2.3,-3.4,84,85,83,0.114,-6.4,-6.0,-6.8,1.315,1.8,302,20,2.8,-0.00003,-0.00003,25.5,29.5,9,0,0,0.0,0.01,0.00,0.00
15min,AgWx,bigpiney,439,20JAN2021:04:45:00,-3.8,12.33,-2.2,-3.1,-2.9,-2.5,-3.5,84,84,83,0.110,-6.6,-6.1,-7.3,2.959,1.4,325,11,3.0,-0.00003,-0.00004,25.4,29.4,9,0,0,0.0,0.01,0.00,0.00
15min,AgWx,bigpiney,439,20JAN2021:05:00:00,-3.8,12.33,-3.5,-4.2,-4.0,-3.1,-4.4,83,84,82,0.102,-7.8,-6.6,-8.4,2.105,2.0,341,10,3.2,-0.00002,-0.00003,25.3,29.3,9,0,0,0.0,0.01,0.00,0.00
15min,AgWx,bigpiney,439,20JAN2021:05:15:00,-3.9,12.33,-2.8,-3.5,-3.8,-3.2,-4.2,83,83,81,0.107,-7.8,-7.1,-8.5,0.241,0.8,330,15,3.5,-0.00004,-0.00006,25.3,29.4,9,0,0,0.0,0.01,0.00,0.00
15min,AgWx,bigpiney,439,20JAN2021:05:30:00,-4.0,12.32,-4.2,-3.9,-4.1,-3.1,-6.1,83,84,79,0.104,-8.1,-6.8,-10.9,2.981,0.6,241,32,3.0,-0.00005,-0.00007,25.2,29.4,9,0,0,0.0,0.01,0.00,0.00
15min,AgWx,bigpiney,439,20JAN2021:05:45:00,-4.1,12.32,-5.4,-5.7,-5.2,-4.1,-6.2,82,84,79,0.094,-9.3,-7.7,-10.9,4.165,4.0,200,24,7.1,-0.00001,-0.00001,25.1,29.3,9,0,0,0.0,0.01,0.00,0.00
15min,AgWx,bigpiney,439,20JAN2021:06:00:00,-4.2,12.31,-1.3,-1.9,-4.1,-1.8,-6.3,83,86,81,0.116,-7.9,-5.1,-10.6,2.302,2.8,237,10,4.7,-0.00002,-0.00002,25.1,29.3,9,0,0,0.0,0.01,0.00,0.00
15min,AgWx,bigpiney,439,20JAN2021:06:15:00,-4.1,12.31,0.3,-0.5,-1.8,-0.5,-3.8,83,84,80,0.123,-5.8,-4.3,-8.4,1.513,2.7,218,14,4.9,-0.00002,-0.00002,25.0,29.2,9,0,0,0.0,0.01,0.00,0.00
15min,AgWx,bigpiney,439,20JAN2021:06:30:00,-4.1,12.31,1.0,0.2,-0.3,0.2,-2.1,82,83,79,0.126,-4.4,-3.8,-7.0,0,0.8,222,32,3.4,-0.00005,-0.00007,24.9,29.2,9,0,0,0.0,0.01,0.00,0.00
15min,AgWx,bigpiney,439,20JAN2021:06:45:00,-4.0,12.3,-3.6,-4.2,-1.2,0.3,-4.6,80,82,77,0.098,-5.8,-3.9,-9.9,3.727,1.1,318,18,4.7,-0.00004,-0.00005,24.9,29.2,9,0,0,0.0,0.01,0.00,0.00
15min,AgWx,bigpiney,439,20JAN2021:07:00:00,-4.0,12.3,-2.6,-4.3,-4.1,-3.7,-4.7,81,82,80,0.100,-8.5,-8.0,-9.4,1.469,1.0,291,18,3.4,-0.00004,-0.00005,24.8,29.2,9,0,0,0.0,0.01,0.00,0.00
15min,AgWx,bigpiney,439,20JAN2021:07:15:00,-4.1,12.3,-0.6,-1.5,-3.0,-1.5,-4.1,81,82,81,0.116,-7.3,-5.7,-8.5,1.008,0.6,237,38,2.4,-0.00005,-0.00007,24.8,29.2,9,0,0,0.0,0.01,0.00,0.00
15min,AgWx,bigpiney,439,20JAN2021:07:30:00,-4.2,12.3,-1.5,-3.4,-1.5,-1.1,-3.4,81,82,78,0.100,-5.9,-5.3,-8.6,1.052,0.9,202,18,2.7,-0.00004,-0.00006,24.7,29.1,9,0,0,0.0,0.01,0.00,0.00
15min,AgWx,bigpiney,439,20JAN2021:07:45:00,-4.1,12.35,0.7,-0.0,-1.1,-0.0,-3.3,82,82,78,0.123,-5.4,-4.4,-8.4,0.526,0.4,234,6.5,1.9,-0.00006,-0.00008,24.6,29.1,9,3,0,0.0,0.01,0.00,0.00
15min,AgWx,bigpiney,439,20JAN2021:08:00:00,-3.7,12.91,-3.9,-0.5,0.7,1.4,-0.5,80,81,77,0.114,-3.9,-3.3,-6.0,1.754,0.7,204,37,2.4,-0.00014,-0.00014,24.6,29.1,9,14,0,0.0,0.01,0.00,0.00
15min,AgWx,bigpiney,439,20JAN2021:08:15:00,-3.3,13.16,-3.9,-4.6,-3.7,-0.7,-4.8,79,80,76,0.097,-8.7,-6.0,-9.5,2.236,1.9,149,21,4.6,-0.00002,-0.00000,24.5,29.1,9,16,0,0.0,0.01,0.00,0.00
15min,AgWx,bigpiney,439,20JAN2021:08:30:00,-3.0,15.01,-3.7,-4.2,-4.0,-3.3,-4.6,81,82,80,0.099,-8.4,-7.5,-9.2,2.433,1.4,64,76,3.2,-0.00003,-0.00002,24.5,29.0,9,62,0,0.0,0.01,0.00,0.00
15min,AgWx,bigpiney,439,20JAN2021:08:45:00,-2.0,14.99,-2.4,-2.8,-3.3,-2.5,-4.2,81,82,80,0.108,-7.6,-6.7,-8.8,1.315,2.4,50,24,3.6,0.00004,0.00006,24.5,29.0,9,100,0,0.0,0.01,0.00,0.00